Location: Pacheco
(37.9835°N, 122.0752°W)
Time: 10:18:06
(UTC+00:00)

Cosmos 1939 Rocket - Pass Details

Date: 13 April 2024
Orbit: 515 x 558 km, 97.4° (Epoch: 24 May)

Event Time Altitude Azimuth Distance (km) Brightness Sun altitude
Rises 12:32:26 0° 17° (NNE) 2,639 6.9 -12.6°
Reaches altitude 10° 12:34:35 10° 22° (NNE) 1,748 6.0 -12.2°
Maximum altitude 12:38:15 52° 100° (E) 649 3.6 -11.5°
Drops below altitude 10° 12:41:55 10° 177° (S) 1,742 5.2 -10.8°
Sets 12:44:03 0° 182° (S) 2,630 6.1 -10.4°
